[[{"header":{"parameterUnit":"m.s-1","parameterCategory":1,"la1":30.2991,"la2":30.254,"lo1":-89.0895,"lo2":-89.0444,"dy":0.0017,"dx":0.0017,"nx":28,"ny":28,"refTime":"2025-05-18T09:00:00:Z","depth":0,"parameterNumber":2,"parameterNumberName":"U-component_of_WINDS"},"data":[0,0,0,0,0,0,0,0,0,0,0,0,0,0,0,0,0,0,0,0,0,0,0,0,0,0,0,0,0,0,0,0,0,0,0,0,0,0,0,0,0,0,0,0,0,0,0,0,0,0,0,0,0,0,0,0,0,0,1.8625,1.8625,0,1.8707,1.8708,1.8709,1.8692,1.8691,1.8689,1.8688,1.8771,1.8774,1.8778,0,0,0,0,0,0,0,0,0,0,0,0,0,1.8449,1.8452,1.8625,1.8626,1.8627,1.8707,1.8708,1.8709,1.8692,1.8691,1.8689,1.8687,1.8769,1.8774,1.8778,0,0,0,0,0,0,0,0,0,0,0,0,0,1.8528,1.8453,1.8624,1.8628,1.8629,1.8707,1.8708,1.871,1.8693,1.8691,1.8688,1.8686,1.8768,1.8773,1.8779,1.8858,0,0,1.8795,1.8798,0,0,0,0,0,0,0,0,1.8523,1.8534,1.8626,1.8628,1.8629,1.8687,1.8677,1.8759,1.8693,1.8669,1.8688,1.8685,1.8745,1.8752,1.8772,1.8861,1.8865,1.8796,1.8799,1.8801,1.8803,0,0,0,0,0,0,0,1.8518,1.8531,1.8657,1.8628,1.8629,1.8624,1.8633,1.8692,1.8718,1.8671,1.867,1.868,1.8745,1.8767,1.8774,1.8866,1.8796,1.88,1.8804,1.8806,1.9022,1.9024,0,0,0,0,0,0,1.8511,1.8526,1.8655,1.866,1.857,1.8629,1.8639,1.8671,1.8718,1.8723,1.8682,1.8679,1.8759,1.8768,1.8777,1.887,1.8801,1.8806,1.881,1.9019,1.9022,1.9025,0,0,0,0,0,0,1.8508,1.8523,1.8651,1.8593,1.8609,1.8635,1.8671,1.8674,1.8696,1.8726,1.873,1.87,1.8757,1.8769,1.8837,1.8873,1.8809,1.8814,1.9016,1.902,1.9023,1.9059,0,0,0,0,0,0,1.8503,1.8522,1.8553,1.8594,1.8612,1.8711,1.8673,1.8677,1.8705,1.8702,1.8744,1.8749,1.8757,1.8829,1.8843,1.8879,1.8818,1.9013,1.9018,1.9022,1.9054,1.9063,1.9071,0,0,0,0,0,1.8497,1.856,1.8555,1.857,1.8651,1.8713,1.8724,1.8732,1.8708,1.8739,1.8758,1.8747,1.8867,1.8836,1.8851,1.889,1.9011,1.9017,1.9022,1.9051,1.9061,1.907,0,0,0,0,0,0,1.8522,1.8565,1.856,1.8638,1.8672,1.871,1.8749,1.8743,1.8784,1.878,1.8788,1.8797,1.8866,1.8885,1.885,1.8968,1.8936,1.8944,1.8952,1.8963,1.8971,1.8963,1.8823,0,0,0,0,0,1.8537,1.8585,1.8619,1.8685,1.8702,1.8723,1.875,1.8754,1.8789,1.8803,1.8827,1.8861,1.8906,1.8936,1.8979,1.9058,1.9065,1.9092,1.91,1.9106,1.9113,1.9153,1.9165,1.9043,1.9043,1.9043,0,0,1.8568,1.8597,1.8627,1.8691,1.8717,1.8765,1.8735,1.8787,1.8822,1.8811,1.8876,1.8895,1.8933,1.9006,1.9039,1.9024,1.9148,1.9113,1.9118,1.9122,1.916,1.9172,1.9182,1.9047,1.9046,1.9046,0,0,1.8648,1.8676,1.8733,1.876,1.8801,1.8814,1.8828,1.8867,1.8879,1.8944,1.8936,1.8978,1.9056,1.9083,1.9107,1.9196,1.9187,1.921,1.9251,1.9291,1.93,1.9309,1.9338,1.9349,1.9217,1.9217,1.9217,0,1.8681,1.8753,1.8762,1.8815,1.8842,1.8835,1.8891,1.8917,1.897,1.8988,1.8971,1.9067,1.9093,1.9171,1.9192,1.9213,1.9227,1.9204,1.9298,1.9307,1.9315,1.9343,1.9354,1.922,1.9219,1.9219,1.9219,0,1.879,1.8841,1.8881,1.8932,1.8964,1.9019,1.9035,1.9066,1.9067,1.9081,1.9147,1.9178,1.9226,1.9245,1.9247,1.9322,1.9311,1.9296,1.9264,1.9329,1.9355,1.9366,1.9223,1.9222,1.9221,1.9221,0,0,1.8888,1.8943,1.8957,1.898,1.9024,1.9062,1.9116,1.9163,1.9189,1.9226,1.9269,1.9335,1.932,1.9348,1.9352,1.9387,1.9452,1.9367,1.9368,1.9379,1.9535,1.9544,1.9557,1.9447,1.9449,1.9451,1.9531,0,1.897,1.9064,1.9074,1.9157,1.9202,1.9196,1.9242,1.9273,1.9288,1.9328,1.9344,1.939,1.9369,1.9385,1.9419,1.9437,1.9483,1.9432,1.9485,1.9487,1.9474,1.9571,1.9582,1.9655,1.9541,1.9543,1.9545,0,1.9078,1.9118,1.9206,1.9242,1.9262,1.9303,1.9346,1.9385,1.942,1.9428,1.9458,1.9457,1.9511,1.9478,1.955,1.9515,1.9537,1.9549,1.9552,1.9556,1.9518,1.9575,1.9679,1.969,1.9561,1.956,1.9559,0,1.9137,1.9213,1.9275,1.9294,1.9339,1.9368,1.9387,1.942,1.9448,1.9485,1.9503,1.9547,1.957,1.9603,1.9613,1.9589,1.9684,1.9653,1.9691,1.9691,1.971,1.9708,1.9817,1.9728,1.9728,1.9728,1.9728,0,1.9227,1.928,1.9302,1.9339,1.9399,1.9409,1.9467,1.9485,1.9514,1.9554,1.9552,1.9589,1.9602,1.9641,1.965,1.9707,1.9718,1.9725,1.9726,1.9724,1.9723,1.9737,1.9731,1.9731,1.973,1.973,1.9729,0,1.9302,1.9319,1.9385,1.9422,1.9432,1.9474,1.9505,1.954,1.9555,1.9606,1.9618,1.964,1.9686,1.9701,1.9757,1.9762,1.9828,1.9826,1.9816,1.9816,1.9852,1.9847,1.9972,1.9988,1.9891,1.9892,1.9893,0,1.9356,1.9397,1.9438,1.9465,1.9486,1.953,1.9557,1.9569,1.9597,1.9639,1.967,1.9715,1.9752,1.9826,1.9846,1.9889,1.9886,1.9927,1.9892,1.9888,1.9883,1.988,1.9883,1.9933,1.9934,1.9934,1.9935,0,1.9451,1.9457,1.9497,1.954,1.9574,1.9608,1.9641,1.9663,1.9679,1.9711,1.9758,1.9787,1.9844,1.9888,1.9931,1.995,1.9944,1.9946,1.9957,1.9953,1.9945,1.9947,1.9831,1.9943,1.9942,1.9941,1.9941,1.9941,1.9516,1.9551,1.9585,1.9629,1.9655,1.9686,1.9721,1.9739,1.9779,1.9826,1.983,1.9881,1.9913,1.997,1.9991,2.003,2.0018,2.0034,2.0037,2.004,2.0042,1.9941,2.0038,2.0038,2.0037,2.0037,2.0037,0,1.9607,1.9629,1.967,1.9716,1.9751,1.9744,1.978,1.9809,1.9853,1.9884,1.9921,1.9974,2.0017,2.0041,2.0083,2.0109,2.0108,2.012,2.0117,2.0121,2.0051,2.0037,2.012,2.012,2.012,2.012,2.012,2.012,1.9659,1.9717,1.9727,1.9798,1.9819,1.9868,1.9889,1.9917,1.9941,2.0001,2.0037,2.0052,2.008,2.0124,2.0163,2.0169,2.0183,2.0196,2.02,2.0135,2.0126,2.0118,2.0104,2.02,2.02,2.0266,2.0267,2.0267]},{"header":{"parameterUnit":"m.s-1","parameterCategory":1,"la1":30.2991,"la2":30.254,"lo1":-89.0895,"lo2":-89.0444,"dy":0.0017,"dx":0.0017,"nx":28,"ny":28,"refTime":"2025-05-18T09:00:00:Z","depth":0,"parameterNumber":3,"parameterNumberName":"V-component_of_WINDS"},"data":[0,0,0,0,0,0,0,0,0,0,0,0,0,0,0,0,0,0,0,0,0,0,0,0,0,0,0,0,0,0,0,0,0,0,0,0,0,0,0,0,0,0,0,0,0,0,0,0,0,0,0,0,0,0,0,0,0,0,2.6547,2.6548,0,2.6647,2.6648,2.6649,2.6629,2.6627,2.6625,2.6623,2.6723,2.6727,2.6731,0,0,0,0,0,0,0,0,0,0,0,0,0,2.6335,2.6339,2.6547,2.6548,2.655,2.6647,2.6648,2.6649,2.6629,2.6627,2.6624,2.6622,2.6721,2.6726,2.6732,0,0,0,0,0,0,0,0,0,0,0,0,0,2.643,2.6341,2.6547,2.6551,2.6552,2.6646,2.6648,2.665,2.6629,2.6627,2.6624,2.6621,2.672,2.6726,2.6732,2.6827,0,0,2.6752,2.6755,0,0,0,0,0,0,0,0,2.6425,2.6438,2.6549,2.6551,2.6553,2.6622,2.661,2.6709,2.663,2.66,2.6623,2.662,2.6691,2.67,2.6725,2.6832,2.6836,2.6753,2.6757,2.676,2.6761,0,0,0,0,0,0,0,2.6418,2.6434,2.6586,2.6551,2.6553,2.6547,2.6557,2.6629,2.666,2.6602,2.6601,2.6613,2.6692,2.6718,2.6727,2.6838,2.6753,2.6758,2.6762,2.6765,2.7026,2.7029,0,0,0,0,0,0,2.6411,2.6428,2.6583,2.6589,2.6481,2.6553,2.6565,2.6603,2.6659,2.6665,2.6616,2.6612,2.6709,2.6719,2.673,2.6844,2.676,2.6766,2.6769,2.7023,2.7027,2.703,0,0,0,0,0,0,2.6406,2.6425,2.6579,2.6509,2.6528,2.6559,2.6602,2.6606,2.6633,2.6669,2.6674,2.6637,2.6707,2.6721,2.6803,2.6847,2.6769,2.6775,2.702,2.7025,2.7029,2.7074,0,0,0,0,0,0,2.64,2.6423,2.6461,2.651,2.6532,2.6652,2.6605,2.661,2.6645,2.6641,2.6691,2.6696,2.6706,2.6794,2.681,2.6855,2.678,2.7016,2.7022,2.7027,2.7068,2.7079,2.7089,0,0,0,0,0,2.6393,2.6469,2.6463,2.6481,2.6579,2.6654,2.6667,2.6677,2.6648,2.6685,2.6708,2.6695,2.684,2.6802,2.682,2.6868,2.7013,2.702,2.7027,2.7064,2.7077,2.7088,0,0,0,0,0,0,2.6424,2.6476,2.6469,2.6564,2.6605,2.6651,2.6698,2.6691,2.674,2.6735,2.6744,2.6756,2.6839,2.6862,2.6819,2.6962,2.6922,2.6933,2.6944,2.6957,2.6967,2.696,2.6785,0,0,0,0,0,2.6442,2.65,2.6541,2.6621,2.6642,2.6666,2.67,2.6704,2.6746,2.6763,2.6792,2.6833,2.6888,2.6924,2.6977,2.7072,2.7081,2.7113,2.7123,2.7131,2.714,2.7191,2.7205,2.7053,2.7053,2.7053,0,0,2.648,2.6515,2.6551,2.6628,2.666,2.6718,2.6681,2.6745,2.6788,2.6773,2.6852,2.6875,2.6921,2.701,2.705,2.7031,2.7185,2.714,2.7146,2.7151,2.7199,2.7214,2.7227,2.7057,2.7057,2.7056,0,0,2.6578,2.6611,2.668,2.6713,2.6763,2.6778,2.6795,2.6842,2.6857,2.6937,2.6926,2.6977,2.7071,2.7104,2.7134,2.7243,2.7232,2.726,2.7312,2.7361,2.7373,2.7384,2.7422,2.7435,2.7269,2.7269,2.7269,0,2.6618,2.6706,2.6716,2.6781,2.6814,2.6804,2.6873,2.6905,2.6969,2.6991,2.6969,2.7087,2.7118,2.7213,2.724,2.7264,2.7282,2.7254,2.7371,2.7382,2.7392,2.7428,2.7442,2.7272,2.7271,2.7271,2.7271,0,2.6752,2.6814,2.6864,2.6926,2.6965,2.7032,2.7051,2.7089,2.7089,2.7107,2.7188,2.7224,2.7283,2.7306,2.7307,2.7402,2.7388,2.7369,2.7328,2.7409,2.7443,2.7457,2.7276,2.7275,2.7274,2.7273,0,0,2.6873,2.694,2.6958,2.6986,2.7039,2.7086,2.7151,2.721,2.7242,2.7286,2.734,2.742,2.7402,2.7435,2.7439,2.7483,2.7565,2.7458,2.7459,2.7475,2.767,2.7684,2.77,2.7559,2.7561,2.7563,2.7666,0,2.6975,2.7092,2.7102,2.7206,2.7262,2.7253,2.7309,2.7347,2.7365,2.7414,2.7434,2.749,2.7462,2.7482,2.7525,2.7546,2.7604,2.7539,2.7608,2.761,2.7596,2.7718,2.7734,2.7829,2.768,2.7682,2.7683,0,2.7111,2.7159,2.7269,2.7313,2.7337,2.7388,2.7442,2.7489,2.7532,2.7541,2.7578,2.7577,2.7642,2.76,2.769,2.7645,2.7674,2.7689,2.7693,2.7699,2.7651,2.7727,2.7859,2.7873,2.7705,2.7703,2.7702,0,2.7186,2.7279,2.7356,2.738,2.7434,2.747,2.7494,2.7534,2.7568,2.7615,2.7637,2.769,2.7719,2.776,2.7772,2.774,2.7861,2.782,2.787,2.787,2.7895,2.7893,2.8033,2.7915,2.7915,2.7915,2.7914,0,2.7299,2.7366,2.7391,2.7438,2.7513,2.7523,2.7596,2.7618,2.7654,2.7704,2.7699,2.7746,2.776,2.7809,2.7819,2.7891,2.7905,2.7914,2.7915,2.7914,2.7913,2.7932,2.7926,2.7918,2.7918,2.7917,2.7916,0,2.7396,2.7416,2.7499,2.7543,2.7556,2.7609,2.7646,2.7691,2.7708,2.7772,2.7787,2.7814,2.7871,2.7888,2.7957,2.7963,2.8048,2.8044,2.8034,2.8034,2.8082,2.8077,2.8239,2.826,2.8129,2.813,2.8131,0,2.7466,2.7518,2.7568,2.7601,2.7627,2.7682,2.7716,2.7728,2.7764,2.7816,2.7855,2.7912,2.7958,2.8051,2.8075,2.8127,2.8124,2.8177,2.8132,2.8128,2.8124,2.812,2.8125,2.8186,2.8187,2.8188,2.8189,0,2.7589,2.7595,2.7646,2.77,2.7742,2.7785,2.7826,2.7853,2.7871,2.7911,2.7971,2.8007,2.8077,2.8134,2.8187,2.821,2.8202,2.8203,2.8217,2.8216,2.8208,2.8212,2.8056,2.8199,2.8198,2.8197,2.8197,2.8197,2.7674,2.7719,2.7761,2.7817,2.7849,2.7887,2.7932,2.7954,2.8004,2.8063,2.8066,2.813,2.817,2.8241,2.8267,2.8316,2.83,2.8321,2.8326,2.8331,2.8334,2.82,2.8326,2.8326,2.8325,2.8325,2.8325,0,2.7795,2.7821,2.7873,2.7931,2.7975,2.7964,2.8009,2.8046,2.8103,2.8141,2.8186,2.8254,2.8308,2.8337,2.839,2.8424,2.8422,2.8438,2.8435,2.844,2.8346,2.8328,2.8439,2.8439,2.8439,2.8439,2.8439,2.8439,2.7863,2.7938,2.795,2.804,2.8066,2.8129,2.8155,2.819,2.822,2.8296,2.8341,2.836,2.8394,2.845,2.8499,2.8505,2.8525,2.8543,2.8548,2.8459,2.8447,2.8436,2.8419,2.8547,2.8547,2.8638,2.8639,2.8639]}]]